Presure
99 97 104 111 121 124 179 180 209 250 247 225 241 257 218 226 191 293 236 198 197 186 192 196 201 91 145 151 174 151 132 125 140 167 141 149 146 110 149 93 101 118 108
101 129 112 100 142 177 205 172 237 246 232 252 230 244 216 141 205 280 288 87 170 229 200 192 198 185 160 115 137 175 135 166 147 163 136 149 152 138 117 136 85 125 145
98 136 184 133 167 215 147 240 216 214 245 223 335 251 190 193 195 206 322 129 99 187 195 185 181 104 171 104 139 161 164 195 156 120 144 137 165 161 164 144 140 120 95
143 126 136 167 180 239 278 259 246 252 193 273 257 257 216 213 210 215 195 231 204 189 201 168 139 184 111 112 84 123 117 125 188 159 181 196 187 165 118 140 131 139 139
125 136 178 209 228 207 240 253 246 266 190 256 242 237 225 201 213 107 193 188 201 79 152 181 181 172 94 98 124 100 92 89 175 134 161 122 171 166 123 168 143 124 154
188 231 248 244 235 258 245 239 239 227 226 252 241 243 215 224 209 189 205 193 173 203 199 82 85 164 83 159 93 89 191 92 88 173 103 195 134 124 174 116 177 139 151
169 203 233 217 220 258 258 230 236 222 251 237 218 231 206 216 210 195 192 203 197 203 77 176 149 104 117 82 179 109 145 94 109 123 128 154 174 130 121 161 183 178 163
190 217 220 233 259 196 258 228 216 227 239 241 228 217 194 201 184 187 191 200 200 198 156 100 77 126 81 106 181 173 150 137 96 130 86 91 134 124 132 170 174 146 177
223 195 223 260 278 262 240 218 205 239 229 227 248 204 198 171 173 187 185 173 181 196 184 187 172 180 159 82 181 179 168 130 94 162 175 187 103 114 171 162 167 93 101
183 203 199 258 300 242 229 214 202 236 225 215 214 200 188 181 188 174 182 194 198 186 188 178 170 174 172 186 167 99 169 167 106 159 171 100 190 152 89 79 98 184 120
199 191 183 224 290 270 215 207 220 214 222 206 206 192 176 189 192 174 190 191 168 173 154 185 187 175 180 175 174 170 112 139 77 94 93 150 172 168 123 167 91 85 120
195 183 191 189 228 224 214 204 225 181 224 202 191 204 189 188 180 177 174 186 170 175 184 182 192 190 183 179 172 158 159 151 93 96 151 133 84 177 161 154 158 120 105
190 193 180 181 250 224 209 204 192 169 196 200 199 199 204 189 169 183 159 170 155 187 192 215 190 194 170 179 175 179 179 179 103 166 79 100 97 107 148 88 156 157 167
186 175 180 176 183 239 216 195 185 214 198 198 196 182 187 167 192 169 183 187 185 171 171 182 191 189 171 173 177 161 169 183 165 154 157 173 179 141 104 95 79 124 166
186 177 145 157 162 208 216 204 185 214 197 199 178 195 183 188 173 179 183 166 162 182 197 170 176 187 187 193 187 187 184 173 185 179 181 182 158 178 164 128 94 165 131
177 185 153 149 155 142 238 210 198 228 176 198 174 182 199 191 178 181 168 178 177 183 173 195 169 181 182 175 167 180 191 175 161 159 168 179 166 170 157 160 168 145 155
178 166 155 158 158 169 173 218 194 184 231 186 189 175 176 191 192 168 176 191 180 176 190 169 149 145 176 183 192 202 163 167 177 160 183 170 173 173 167 173 168 162 161
175 181 163 173 172 178 167 170 200 213 178 199 182 179 172 177 194 177 174 174 162 194 192 168 180 185 169 163 177 153 167 179 169 165 178 172 169 176 160 155 158 180 175
173 173 178 167 173 166 164 161 186 195 231 201 176 189 181 178 177 191 158 175 164 149 165 187 179 173 165 167 147 149 164 174 167 175 168 165 158 162 162 160 174 170 164
171 181 167 170 173 176 154 171 182 196 185 210 180 183 190 180 183 176 180 159 170 157 166 180 173 187 169 164 168 153 180 169 180 171 174 177 179 177 175 172 170 175 181
173 173 166 163 165 161 183 154 173 182 195 176 181 154 183 183 156 169 185 171 167 191 174 165 159 159 192 176 178 192 179 152 158 166 179 180 167 167 163 184 194 191 192
170 174 172 171 167 168 154 170 164 167 169 188 177 192 184 195 188 158 164 173 176 172 178 164 159 177 156 160 145 179 166 172 175 163 169 176 180 184 180 168 173 178 187
172 173 171 172 173 175 152 183 162 159 163 166 174 192 189 185 192 190 172 182 174 170 173 170 171 176 170 177 165 157 150 168 166 171 160 159 156 157 152 158 162 161 162
165 166 172 172 172 172 158 180 160 147 179 161 171 173 184 176 176 171 175 188 165 158 162 161 180 164 154 174 175 173 177 167 162 160 168 171 151 165 177 170 169 158 157
168 163 164 172 179 149 173 166 174 156 181 163 143 172 168 179 198 177 179 167 165 185 179 154 163 168 169 167 166 163 188 173 160 156 161 157 164 168 163 165 154 156 170
158 162 165 171 177 177 168 164 141 187 191 179 155 193 164 148 150 186 205 186 167 171 177 165 167 175 173 165 168 162 169 165 170 167 164 168 165 161 171 158 162 159 164
Wind_Speed
40 39 45 47 49 50 66 69 89 69 61 58 53 44 38 38 39 34 39 42 39 40 39 39 39 30 56 72 43 61 46 42 49 58 49 57 56 40 55 36 36 42 38
47 55 49 45 61 72 83 66 69 59 58 48 45 33 28 28 30 23 30 28 37 41 39 35 28 33 34 42 64 53 59 64 62 67 43 51 53 52 45 49 33 45 53
48 60 76 58 69 85 63 65 68 59 49 45 34 21 29 44 35 28 12 31 27 39 38 35 27 33 34 31 68 62 57 49 70 49 52 41 63 56 61 53 53 47 38
64 59 62 72 70 57 38 41 41 39 42 27 19 27 39 40 28 35 28 34 36 39 36 34 38 33 34 34 30 38 40 46 54 67 44 45 56 53 46 52 51 55 52
61 64 78 76 66 67 53 34 34 22 39 19 16 26 40 33 31 31 29 33 37 35 35 39 40 42 33 36 43 42 38 34 45 49 55 54 63 60 51 58 58 57 60
80 75 58 51 51 41 39 32 27 29 27 12 21 29 38 34 41 36 31 37 38 44 45 32 35 42 36 51 46 39 48 35 32 57 42 46 56 59 47 55 66 58 62
74 74 55 56 51 36 27 29 20 28 13 20 27 33 37 34 42 35 37 40 43 47 34 52 51 44 46 37 56 40 44 43 40 55 44 61 56 53 52 56 52 62 62
71 61 54 45 33 46 21 25 25 20 24 31 35 44 36 33 37 38 38 40 46 51 48 40 36 45 41 46 54 52 45 43 45 52 35 36 61 55 42 59 58 60 49
50 58 42 31 24 23 22 26 26 18 32 37 46 38 42 41 40 41 37 38 37 50 53 61 59 58 52 44 56 54 55 52 48 44 45 51 39 47 58 47 49 41 42
61 47 45 30 19 23 22 25 26 28 33 39 43 51 44 39 46 42 40 42 48 47 58 60 59 58 57 57 57 57 58 58 60 46 55 41 44 44 39 37 46 49 52
48 47 49 33 19 18 24 24 24 31 41 45 48 49 42 50 51 48 35 43 46 47 49 59 62 59 60 59 56 54 53 53 40 43 50 66 56 59 55 62 45 41 48
43 47 40 38 28 19 23 23 25 33 52 48 47 56 49 49 47 44 41 44 46 47 51 49 63 64 64 58 56 57 54 58 56 57 51 54 48 55 66 69 63 55 51
39 36 40 36 20 16 24 23 26 35 34 51 53 52 60 53 49 53 43 43 45 46 50 55 63 63 55 57 55 55 56 59 65 59 51 59 62 60 65 48 70 71 63
38 40 33 36 28 16 22 25 26 50 39 54 54 50 51 49 58 48 53 60 58 45 49 49 51 59 56 54 55 54 57 58 57 49 65 58 56 66 68 59 44 55 67
41 37 50 43 37 22 23 26 28 53 46 59 45 60 55 57 51 52 54 46 40 52 58 43 45 50 51 57 57 53 59 59 54 54 52 54 66 55 60 53 60 68 66
46 36 48 51 44 40 19 27 27 45 43 61 46 54 59 62 48 55 49 47 47 58 50 58 46 49 47 52 50 51 53 54 58 59 57 56 62 59 68 63 58 60 66
51 46 47 45 46 36 29 23 31 34 55 50 67 53 50 60 66 47 47 65 56 47 63 48 53 50 45 47 53 49 53 57 51 59 53 58 60 62 65 60 62 67 69
53 46 48 38 35 30 35 31 30 34 40 68 56 61 58 57 73 54 51 52 40 63 69 48 56 59 46 47 47 51 51 52 55 57 61 60 59 60 67 70 71 64 68
57 51 47 44 36 35 36 40 30 37 43 58 52 72 70 62 61 72 48 55 49 54 40 66 57 54 58 54 60 55 49 57 55 57 60 63 66 67 68 71 64 66 72
60 54 52 47 42 39 53 34 33 32 42 52 53 65 77 75 71 60 71 48 53 52 62 63 63 68 59 55 54 51 61 53 59 58 59 62 61 63 63 64 68 65 66
65 59 55 51 45 44 42 53 36 39 36 48 49 53 70 81 56 58 74 62 54 75 68 60 54 52 71 66 69 73 69 59 57 58 63 64 60 62 63 66 76 72 71
69 66 62 60 54 47 50 44 45 44 44 43 54 60 60 79 92 56 53 59 75 66 76 65 60 75 63 65 67 74 66 68 72 63 63 66 70 73 71 62 63 64 69
74 73 66 62 60 57 59 56 52 43 51 52 53 53 60 62 72 79 76 83 73 69 70 72 74 81 73 78 72 67 70 74 75 75 68 71 73 72 76 70 67 68 70
73 71 71 71 67 65 57 61 60 68 51 60 54 55 58 63 64 65 67 80 68 63 63 67 82 73 75 80 77 80 83 73 73 72 74 77 80 77 81 76 76 78 80
80 71 63 71 76 67 67 57 61 70 57 67 69 57 61 61 61 65 69 67 72 82 77 72 71 74 72 73 75 78 91 83 82 83 81 83 80 80 81 82 81 81 82
76 72 74 78 82 80 68 62 77 72 71 63 74 61 67 69 67 65 63 76 71 74 77 76 79 82 84 82 83 82 86 85 87 87 88 88 85 86 89 86 87 88 89
Wind_Direction
270 272 276 277 284 284 293 295 295 291 290 291 288 277 272 267 259 255 243 243 242 237 229 226 222 234 233 219 220 230 232 224 229 223 230 229 225 230 229 230 232 232 232
273 285 274 271 291 296 296 293 292 290 290 287 284 278 251 244 252 259 242 238 232 211 221 225 209 216 229 228 234 216 242 222 235 226 225 233 232 230 234 233 238 236 236
269 286 294 287 295 298 289 290 291 290 291 289 293 238 242 246 246 233 221 230 233 224 213 218 202 233 213 230 231 219 224 212 228 222 230 228 230 230 230 231 235 235 237
292 285 291 297 292 290 289 290 286 288 290 292 280 189 208 220 215 219 231 205 204 213 200 203 223 195 227 227 235 225 227 230 215 229 223 228 231 227 237 230 237 238 240
285 286 299 296 294 295 289 289 285 290 289 282 215 194 199 224 196 228 207 212 201 240 212 194 191 208 237 238 226 237 237 236 213 236 228 226 230 228 238 232 237 242 237
298 300 297 293 290 291 290 283 282 271 281 229 197 182 186 189 192 227 184 200 219 199 181 234 237 207 247 214 238 253 206 244 240 225 240 224 237 233 231 242 233 238 237
296 298 296 296 290 281 281 275 264 268 250 183 189 168 183 176 188 201 200 198 196 192 240 203 217 228 236 254 217 241 225 247 234 236 230 235 223 236 240 231 235 235 238
298 297 297 297 287 289 267 264 263 263 189 176 175 169 186 178 207 208 205 199 195 194 211 223 237 232 244 233 210 213 219 221 244 233 247 246 238 237 238 233 233 240 237
292 295 298 306 290 272 257 258 257 213 190 185 159 187 159 220 214 213 213 215 210 192 198 199 217 216 218 245 207 210 215 234 253 222 227 228 240 244 229 238 241 247 247
294 294 296 314 288 281 251 253 252 186 192 192 182 178 192 200 208 213 217 205 202 204 202 210 217 218 221 204 222 240 218 220 235 225 219 237 231 236 247 249 250 241 243
291 291 293 307 301 260 254 247 228 204 187 191 187 202 220 201 191 207 208 210 214 212 224 210 210 221 217 216 218 220 239 234 251 247 251 237 221 226 239 232 253 250 248
283 286 289 290 298 272 253 246 222 244 185 199 213 189 203 199 208 213 218 213 214 214 224 221 214 215 216 220 219 228 227 230 246 248 238 239 255 221 231 235 241 246 249
279 280 285 287 317 263 252 244 240 249 216 199 201 198 184 201 233 208 238 235 226 226 228 219 220 214 226 223 223 223 222 225 245 228 257 249 253 252 242 256 242 238 241
271 275 277 282 282 275 248 245 241 199 217 201 209 222 221 239 199 241 221 216 223 230 235 232 217 220 226 227 228 231 232 224 229 234 233 235 236 239 247 252 259 244 240
268 267 276 276 275 294 255 244 240 205 214 205 227 210 224 212 240 233 227 231 245 232 223 235 236 224 223 225 227 226 226 229 229 228 229 229 237 233 234 247 256 240 251
267 264 272 273 273 262 278 253 239 212 230 209 240 230 211 212 232 239 235 242 242 229 236 237 232 238 230 228 232 233 226 226 235 240 232 233 238 236 241 240 239 247 245
264 265 266 266 269 268 265 258 248 236 213 224 217 236 239 219 220 246 244 224 235 245 233 244 227 227 242 236 240 233 229 230 238 237 233 234 235 237 239 242 241 241 244
262 260 259 258 260 260 257 259 256 235 232 218 226 231 238 239 214 244 244 246 234 231 233 244 246 247 245 239 238 239 239 240 236 239 238 238 239 240 242 245 245 247 246
263 261 258 253 256 247 250 255 261 250 228 223 232 225 229 236 237 224 235 245 239 232 251 240 244 255 238 246 244 242 246 248 242 241 239 241 244 242 243 245 247 244 246
266 261 261 257 257 258 258 258 262 251 245 231 231 232 227 233 230 247 236 240 245 238 239 235 253 245 256 251 258 244 253 258 257 252 254 253 252 252 250 248 248 253 255
264 262 262 257 255 245 264 258 255 252 243 244 242 239 236 232 241 243 234 248 247 236 251 254 247 246 248 259 256 254 259 244 252 260 260 261 249 251 253 260 265 264 265
264 262 260 260 257 255 235 256 236 245 247 244 243 239 239 232 233 242 241 247 242 248 248 247 250 254 244 247 241 257 255 258 260 257 262 260 261 263 262 259 265 268 267
265 267 268 267 267 265 238 264 235 246 242 246 245 241 239 244 238 239 240 242 244 243 245 245 251 254 254 255 256 249 247 254 254 259 255 254 250 253 250 255 259 259 260
268 270 268 269 267 266 239 267 231 245 248 237 244 244 244 243 241 239 244 246 240 238 240 241 250 246 247 252 258 259 257 255 251 253 259 260 252 261 266 266 262 255 255
266 264 270 269 267 243 266 255 259 239 248 230 249 247 240 242 240 244 246 242 242 250 250 239 249 250 248 250 251 250 259 259 252 250 253 253 259 263 262 262 255 259 268
258 261 265 265 266 265 259 254 244 262 261 244 236 259 235 247 247 245 240 247 243 244 250 247 249 253 255 252 256 253 256 256 260 257 259 260 258 257 264 258 260 260 263